[Date Prev][Date Next][Thread Prev][Thread Next] - [Date Index][Thread Index][Author Index]

2 Line ISS Keps 10-17



ISS
1 25544U 98067A   03290.42146163  .00017929  00000-0  20276-3 0  6569
2 25544  51.6292 124.1849 0006449  50.4101  32.7098 15.62504880280109


----
Via the sarex mailing list at AMSAT.ORG courtesy of AMSAT-NA.
To unsubscribe, send "unsubscribe sarex" to Majordomo@amsat.org



AMSAT Top AMSAT Home